Location: Napier
(39.4830°S, 176.9170°E)
Time: 23:50:23
(UTC+13:00)

Cosmos 968 Rocket - Pass Details

Date: 24 January 2019
Orbit: 740 x 771 km, 74.0° (Epoch: 17 October)

Event Time Altitude Azimuth Distance (km) Brightness Sun altitude
Exits shadow 23:03:47 58° 33° (NNE) 892 3.4 -22.7°
Maximum altitude 23:04:30 65° 75° (ENE) 841 3.4 -22.8°
Drops below altitude 10° 23:09:41 10° 155° (SSE) 2,307 6.3 -23.4°
Sets 23:12:09 0° 158° (SSE) 3,265 7.2 -23.7°
